User: anonymous   Login
Location: Nairn
(57.5833°N, 3.8667°W)
Time: 11:30:35
(UTC+00:00)
Language:

Cosmos 1048 Rocket - Orbit

View from above orbital plane
View from above orbital plane
View from above satellite
View from above satellite

Ground track
Ground track

The orbit data is extracted from the following two-line orbital elements,

1 11112U 78105B   20293.69286831 +.00000092 +00000-0 +39557-4 0  9990
2 11112 074.0305 080.5917 0034699 298.9669 060.8007 14.37274626195094
Epoch (UTC): 19 October 2020 16:37:43
Eccentricity: 0.0034699
inclination: 74.0305°
perigee height: 743 km
apogee height: 792 km
right ascension of ascending node: 80.5917°
argument of perigee: 298.9669°
revolutions per day: 14.37274626
mean anomaly at epoch: 60.8007°
orbit number at epoch: 19509

The dashed part of the orbit path shows where the satellite is in the earth's shadow,  

DLR